UWWWUDYZ

Guest
Details From UWWW - Kurumoch
To UDYZ - Zvartnots
Flight Number -
Tags Generated
Created
Modified
Stats Distance 836 nm / 1,548 km
Max Altitude 0 ft / 0 m
Waypoints 3
Social Downloads 0
Likes 0
Share VATSIM

Download

Looking for another format? Having issues loading an existing format? Contact us
Advertisement - Login to hide

Notes

Generated

Route

UWWW ZVR UDYZ

ID Type Via Altitude Latitude Longitude Leg Dist Tot Dist Heading (true) Name
O UWWW APT - 0 ft / 0 m 53.49841˚ 50.13488˚ - 0 nm - -
ZVR VOR - 0 ft / 0 m 40.14719˚ 44.36696˚ 835 nm 835 nm 199° / 194° YEREVAN VOR-DME
O UDYZ APT - 0 ft / 0 m 40.14715˚ 44.37329˚ 0 nm 835 nm 90° / 90° -

Altitude Profile

Advertisement - Login to hide

Weather


0- 5 10 15 20 25 30 35+ Temperature / ° C

Clouds and Precipitation
Forecast for 2018-05-20 18:00 UTC. Updated 2 hours ago

Ground ~20,000 ft ~40,000 ft Winds

UWWW

Details ICAO UWWW (KBY)
Name KURUMOCH
Region Russia
Timezone Europe/Samara (UTC+4.0)
Stats Elevation 477 ft / 145 m (AMSL)
Location 53.504905° 50.164434°
Runways 2
Magnetic Variation 12.178° E

METAR

UWWW 201930Z 01004MPS CAVOK 14/10 Q1018 R33/CLRD60 NOSIG RMK QFE753/1004

Decode

TAF

TAF UWWW 201700Z 2018/2118 36005G10MPS 9999 SCT020 BKN100 TX20/2111Z TN11/2102Z TEMPO 2018/2103 02003G08MPS 3100 BR SCT011 BKN100 BECMG 2103/2104 02006MPS TEMPO 2104/2116 04007G13MPS

Decode

Departure Runways

ID Width Length Bearing (true) Bearing (mag) Surface Threshold Offset Overrun Length
05 197 ft / 60 m 8,483 ft / 2,586 m 61.70° 49.52° Asphalt 0 ft / 0 m 75 ft / 23 m
15 148 ft / 45 m 9,845 ft / 3,001 m 160.00° 147.82° Concrete 0 ft / 0 m 175 ft / 53 m
23 197 ft / 60 m 8,483 ft / 2,586 m 241.73° 229.55° Asphalt 0 ft / 0 m 180 ft / 55 m
33 148 ft / 45 m 9,845 ft / 3,001 m 340.01° 327.83° Concrete 0 ft / 0 m 175 ft / 53 m

UDYZ

Details ICAO UDYZ (EVN)
Name ZVARTNOTS
Region Armenia
Timezone Asia/Yerevan (UTC+4.0)
Stats Elevation 2,838 ft / 865 m (AMSL)
Location 40.147271° 44.395880°
Runways 1
Magnetic Variation 6.234° E

METAR

UDYZ 201930Z 09004KT 050V120 9999 -SHRA BKN040CB 17/15 Q1018 R09/190065 NOSIG

Decode

TAF

TAF UDYZ 201707Z 2018/2118 04006KT 9999 SCT040 BKN100 TEMPO 2018/2106 VRB20G30KT -TSRA BKN030CB

Decode

Destination Runways

ID Width Length Bearing (true) Bearing (mag) Surface Threshold Offset Overrun Length
09 184 ft / 56 m 12,601 ft / 3,841 m 89.59° 83.36° Asphalt 0 ft / 0 m 0 ft / 0 m
27 184 ft / 56 m 12,601 ft / 3,841 m 269.62° 263.39° Asphalt 0 ft / 0 m 0 ft / 0 m

Approach Navaids

Runway Type Ident Frequency Range Bearing (true) Bearing (mag) Slope Elevation
09 Localiser IZR 108.10 MHz 18 nm / 33 km 89.83° 83.60° - 2,838 ft / 865 m (AMSL)
09 Glidescope IZR 108.10 MHz 10 nm / 19 km 89.61° 83.37° 2.67° 2,838 ft / 865 m (AMSL)